TimeCET,TemperatureF,Dew PointF,Humidity,Sea Level PressureIn,VisibilityMPH,Wind Direction,Wind SpeedMPH,Gust SpeedMPH,PrecipitationIn,Events,Conditions,WindDirDegrees,DateUTC
12:00 AM,42.8,41.0,93,30.09,-9999.0,NE,3.5,-,N/A,,Clear,40,2013-03-02 23:00:00
12:30 AM,42.8,41.0,93,30.09,-9999.0,NE,6.9,-,N/A,,Clear,50,2013-03-02 23:30:00
1:00 AM,42,39,87,30.11,9,NE,1.2,,,,Scattered Clouds,50,2013-03-03 00:00:00
1:00 AM,42.8,42.8,100,30.09,-9999.0,NE,3.5,-,N/A,,Clear,40,2013-03-03 00:00:00
1:30 AM,42.8,41.0,93,30.09,6.2,NNE,3.5,-,N/A,,Partly Cloudy,30,2013-03-03 00:30:00
2:00 AM,41.0,39.2,93,30.09,6.2,NE,3.5,-,N/A,,Partly Cloudy,40,2013-03-03 01:00:00
2:30 AM,41.0,39.2,93,30.09,6.2,NE,3.5,-,N/A,,Partly Cloudy,40,2013-03-03 01:30:00
3:00 AM,41.0,39.2,93,30.06,6.2,NE,5.8,-,N/A,,Partly Cloudy,50,2013-03-03 02:00:00
3:30 AM,41.0,39.2,93,30.06,6.2,NNE,5.8,-,N/A,,Partly Cloudy,30,2013-03-03 02:30:00
4:00 AM,41.0,39.2,93,30.06,6.2,NNE,6.9,-,N/A,,Partly Cloudy,30,2013-03-03 03:00:00
4:30 AM,39.2,37.4,93,30.06,6.2,North,3.5,-,N/A,,Partly Cloudy,360,2013-03-03 03:30:00
5:00 AM,41.0,39.2,93,30.06,6.2,Variable,1.2,-,N/A,,Partly Cloudy,0,2013-03-03 04:00:00
5:30 AM,41.0,37.4,87,30.06,6.2,SSE,1.2,-,N/A,,Partly Cloudy,150,2013-03-03 04:30:00
6:00 AM,37.4,35.6,93,30.06,6.2,Calm,Calm,-,N/A,,Partly Cloudy,0,2013-03-03 05:00:00
6:30 AM,37.4,35.6,93,30.06,6.2,Calm,Calm,-,N/A,,Partly Cloudy,0,2013-03-03 05:30:00
7:00 AM,36,34,88,30.07,12,Calm,Calm,,,,Scattered Clouds,,2013-03-03 06:00:00
7:00 AM,37.4,35.6,93,30.06,6.2,Calm,Calm,-,N/A,,Partly Cloudy,0,2013-03-03 06:00:00
7:30 AM,39.2,37.4,93,30.06,-9999.0,Calm,Calm,-,N/A,,Clear,0,2013-03-03 06:30:00
8:00 AM,39.2,37.4,93,30.06,-9999.0,Calm,Calm,-,N/A,,Clear,0,2013-03-03 07:00:00
8:30 AM,42.8,41.0,93,30.06,-9999.0,Calm,Calm,-,N/A,,Clear,0,2013-03-03 07:30:00
9:00 AM,48.2,42.8,82,30.06,-9999.0,Calm,Calm,-,N/A,,Clear,0,2013-03-03 08:00:00
9:30 AM,50.0,44.6,82,30.06,-9999.0,Variable,1.2,-,N/A,,Clear,0,2013-03-03 08:30:00
10:00 AM,51.8,46.4,82,30.06,-9999.0,Variable,2.3,-,N/A,,Clear,0,2013-03-03 09:00:00
10:30 AM,55.4,44.6,67,30.06,-9999.0,East,4.6,-,N/A,,Clear,80,2013-03-03 09:30:00
11:00 AM,57.2,44.6,63,30.04,-9999.0,ENE,3.5,-,N/A,,Clear,70,2013-03-03 10:00:00
11:30 AM,57.2,42.8,59,30.04,-9999.0,ENE,4.6,-,N/A,,Clear,60,2013-03-03 10:30:00
12:00 PM,59.0,44.6,59,30.04,6.2,ENE,6.9,-,N/A,,Partly Cloudy,60,2013-03-03 11:00:00
12:30 PM,60.8,46.4,59,30.04,6.2,ENE,8.1,-,N/A,,Partly Cloudy,70,2013-03-03 11:30:00
1:00 PM,61,42,39,30.03,19,ENE,9.2,,,,Scattered Clouds,70,2013-03-03 12:00:00
1:00 PM,60.8,44.6,55,30.01,6.2,ENE,8.1,-,N/A,,Partly Cloudy,70,2013-03-03 12:00:00
1:30 PM,60.8,46.4,59,30.01,6.2,East,8.1,-,N/A,,Partly Cloudy,90,2013-03-03 12:30:00
2:00 PM,60.8,46.4,59,30.01,6.2,East,8.1,-,N/A,,Partly Cloudy,80,2013-03-03 13:00:00
2:30 PM,62.6,46.4,55,29.98,6.2,ENE,8.1,-,N/A,,Partly Cloudy,70,2013-03-03 13:30:00
3:00 PM,62.6,42.8,48,29.98,6.2,East,8.1,-,N/A,,Partly Cloudy,80,2013-03-03 14:00:00
3:30 PM,62.6,39.2,42,29.98,6.2,ESE,6.9,-,N/A,,Partly Cloudy,110,2013-03-03 14:30:00
4:00 PM,62.6,51.8,68,29.98,6.2,East,5.8,-,N/A,,Partly Cloudy,100,2013-03-03 15:00:00
4:30 PM,59.0,50.0,72,29.98,6.2,SE,6.9,-,N/A,,Partly Cloudy,140,2013-03-03 15:30:00
5:00 PM,60.8,48.2,63,29.98,6.2,SE,5.8,-,N/A,,Partly Cloudy,130,2013-03-03 16:00:00
5:30 PM,59.0,48.2,67,29.98,6.2,SE,6.9,-,N/A,,Partly Cloudy,140,2013-03-03 16:30:00
6:00 PM,59.0,48.2,67,29.98,6.2,SE,5.8,-,N/A,,Partly Cloudy,130,2013-03-03 17:00:00
7:00 PM,53,44,62,29.99,12,East,4.6,,,,Scattered Clouds,100,2013-03-03 18:00:00
7:00 PM,55.4,46.4,72,29.98,6.2,ESE,6.9,-,N/A,,Partly Cloudy,110,2013-03-03 18:00:00
7:30 PM,53.6,48.2,82,29.98,6.2,East,5.8,-,N/A,,Partly Cloudy,100,2013-03-03 18:30:00
8:00 PM,53.6,48.2,82,29.98,6.2,East,3.5,-,N/A,,Partly Cloudy,100,2013-03-03 19:00:00
8:30 PM,51.8,46.4,82,29.98,6.2,East,5.8,-,N/A,,Partly Cloudy,90,2013-03-03 19:30:00
9:00 PM,50.0,46.4,87,29.98,6.2,East,2.3,-,N/A,,Partly Cloudy,80,2013-03-03 20:00:00
9:30 PM,50.0,46.4,87,29.98,6.2,Variable,1.2,-,N/A,,Partly Cloudy,0,2013-03-03 20:30:00
10:00 PM,50.0,46.4,87,29.98,6.2,Variable,1.2,-,N/A,,Partly Cloudy,0,2013-03-03 21:00:00
10:30 PM,50.0,46.4,87,29.98,6.2,ENE,5.8,-,N/A,,Partly Cloudy,60,2013-03-03 21:30:00
11:00 PM,50.0,46.4,87,29.98,6.2,East,3.5,-,N/A,,Partly Cloudy,80,2013-03-03 22:00:00
11:30 PM,50.0,46.4,87,29.98,6.2,Calm,Calm,-,N/A,,Scattered Clouds,0,2013-03-03 22:30:00